ELEKTRO-L 2

Last updated on Thu Mar 05 2026 00:02:30 GMT+0000 (Coordinated Universal Time)

1 41105U 15074A 26062.86880331 -.00000128 00000+0 00000+0 0 9991 2 41105 6.4296 71.8188 0003467 237.1165 150.9510 1.00270829 37457
UTC large
Height (km)
Speed (km/s)
/
Latitude / Longitude
Inclination (degrees)
Orbital Period (minutes)
Azimuth
Elevation
Range (km)
Doppler Factor

Next 0 passes for location: London (51.5072 / 0.1276)

Sorry there are no passes over London.